Current weather by "City, St" or "zip code"  
 
Advertise Here

Current Conditions: Harlan, KY

Overcast


38.0 F

Last Updated on Jan 25 2021, 5:55 am EST
Humidity: 100%
Wind Speed: N 0.0 mph
Barometer 30.00 in
Dewpoint: 38.5 F
Visibility: 0.50 mi
Precip: --
Heat Index: NA
Wind Chill: NA
Current conditions at:

Harlan, KY (KI35)

Lat: 36.85933 Lon: 83.35847

Local Radar Image active severe weather and emergency alerts image image weather storm and storm spotter reports image weather observation monitoring service image
Local
Radar
Active
Alerts
Storm Reports Obs
Monitoring

Sign-up For Email & Text Message Weather Alert Notification Services


Advertise Here

Observation History for Harlan, KY


Time Wind
(mph)
Vis
(mi)
Weather Precip (in) Temperature (F) Relative
Humidity
Wind
Chill
(F)
Heat
Index
(F)
Pressure
Air Dwpt altimeter
(in)
sea level
(mb)
Rmks
5:55 am EST N 0.0 0.50 Overcast -- 38.0 38.5 100% NA NA 30.00 M
4:55 am EST N 0.0 0.50 Overcast -- 38.0 38.3 100% NA NA 30.00 M
3:55 am EST N 0.0 1.00 Overcast -- 38.0 38.3 100% NA NA 30.03 M
2:55 am EST N 0.0 1.25 Overcast -- 38.0 38.3 100% NA NA 30.04 M
1:55 am EST N 0.0 2.00 Overcast -- 38.0 37.6 100% NA NA 30.03 M
12:55 am EST N 0.0 0.50 Overcast -- 37.0 37.4 100% NA NA 30.05 M
11:55 pm EST N 0.0 0.25 Overcast -- 37.0 37.4 100% NA NA 30.07 M
10:55 pm EST N 0.0 2.50 Overcast -- 37.0 36.9 98% NA NA 30.07 M
9:55 pm EST N 0.0 7.00 Overcast -- 38.0 36.5 93% NA NA 30.07 M
8:55 pm EST NE 3.5 10.00 Overcast -- 40.0 34.2 79% NA NA 30.07 M
7:55 pm EST N 0.0 10.00 Overcast -- 42.0 32.0 68% NA NA 30.07 M
6:55 pm EST N 0.0 10.00 Overcast -- 45.0 26.4 49% NA NA 30.06 M
5:55 pm EST NE 3.5 10.00 Overcast -- 44.0 27.5 52% NA NA 30.06 M
4:55 pm EST N 0.0 7.00 Overcast -- 43.0 29.8 59% NA NA 30.07 M
3:55 pm EST N 0.0 10.00 Overcast -- 43.0 29.3 58% NA NA 30.08 M
2:55 pm EST N 0.0 10.00 Overcast -- 44.0 24.6 46% NA NA 30.08 M
1:55 pm EST N 0.0 10.00 Overcast -- 44.0 19.9 39% NA NA 30.10 M
12:55 pm EST N 0.0 10.00 Overcast -- 43.0 18.7 38% NA NA 30.13 M
11:50 am EST N 0.0 10.00 Overcast -- 42.0 16.7 36% NA NA 30.16 M
11:35 am EST E 4.6 10.00 Overcast -- 42.0 16.9 37% 39 NA 30.16 M
10:55 am EST NE 3.5 10.00 Overcast -- 40.0 17.4 40% NA NA 30.17 M
9:55 am EST E 4.6 10.00 Overcast -- 35.0 17.8 49% 31 NA 30.18 M
8:35 am EST N 0.0 10.00 Overcast -- 32.0 18.1 57% NA NA 30.18 M
7:35 am EST E 5.8 10.00 Fair -- 28.0 16.2 61% 22 NA 30.16 M

Regional Weather Observation


Wendell H Ford Airport, KY (KCPF)

Fog/Mist
41.0 F

Middlesboro, Middlesboro-Bell County Airport, KY (K1A6)

Light Rain
40.0 F

Lee County Airport, VA (K0VG)

Fog/Mist
39.0 F

Jackson, Carroll Airport, KY (KJKL)

Fog
40.0 F

London, London-Corbin Airport-Magee Field, KY (KLOZ)

Fog/Mist
42.0 F

Williamsburg-Whitley County Airport, KY (KBYL)

Overcast
43.0 F